Ahoskie, NC

2:40 PM EST on December 14, 2019 (GMT -0500)
Tri County

Weather History for KASJ - November, 2019

Change the Weather History Date:

Friday, November 15, 2019

  Actual Average (KEMV) Record (KEMV)
Temperature  
Mean Temperature 42 °F -  
Max Temperature 46 °F 62 °F 79 °F (1985)
Min Temperature 39 °F 35 °F 21 °F (1986)
Degree Days  
Heating Degree Days 22    
Moisture  
Dew Point 43 °F    
Average Humidity 100    
Maximum Humidity 100    
Minimum Humidity 88    
Precipitation  
Precipitation 0.01 in - - ()
Sea Level Pressure  
Sea Level Pressure 30.19 in    
Wind  
Wind Speed 5 mph ()    
Max Wind Speed 12 mph    
Max Gust Speed 18 mph    
Visibility 7.0 miles    
Events Rain    
Averages and records for this station are not official NWS values.
T = Trace of Precipitation, MM = Missing Value Source: Averaged Metar Reports

Daily Weather History Graph

Daily Weather History Graph

Search for Another Location

Airport or City:

Astronomy

Nov. 15, 2019 Rise Set
Actual Time 6:45 AM EST 5:00 PM EST
Civil Twilight 6:18 AM EST 5:27 PM EST
Nautical Twilight 5:47 AM EST 5:59 PM EST
Astronomical Twilight 5:16 AM EST 6:29 PM EST
Moon 7:37 PM EST (11/15) 9:37 AM EST (11/15)
Length of Visible Light 11h 09m
Length of Day
10h 15m
Waning Gibbous, 90% of the Moon is Illuminated
Nov 15
Waning Gibbous
Nov 19
Last Quarter
Nov 26
New
Dec 4
First Quarter
Dec 12
Full

Hourly Weather History & Observations

Time (EST) Temp. Windchill Dew Point Humidity Pressure Visibility Wind Dir Wind Speed Gust Speed Precip Events Conditions
12:15 AM 41.2 °F 39.2 °F 37.9 °F 88% 30.28 in 10.0 mi North 3.5 mph - N/A Rain Light Rain
12:55 AM 41.0 °F 36.4 °F 38.3 °F 90% 30.28 in 10.0 mi WNW 6.9 mph - N/A Rain Light Rain
1:15 AM 40.3 °F 37.1 °F 39.0 °F 95% 30.28 in 7.0 mi NW 4.6 mph - N/A Rain Light Rain
1:35 AM 39.7 °F 34.9 °F 39.2 °F 98% 30.28 in 10.0 mi NNW 6.9 mph - N/A Rain Rain
1:55 AM 39.2 °F 34.2 °F 39.2 °F 100% 30.28 in 10.0 mi NNW 6.9 mph - N/A   Overcast
2:15 AM 39.4 °F 35.2 °F 39.4 °F 100% 30.28 in 10.0 mi NNW 5.8 mph - N/A Rain Rain
2:55 AM 40.1 °F 38.0 °F 40.1 °F 100% 30.26 in 10.0 mi ENE 3.5 mph - N/A Rain Rain
3:35 AM 41.0 °F - 41.0 °F 100% 30.25 in 5.0 mi Calm Calm - N/A Rain Rain
3:55 AM 41.0 °F - 41.0 °F 100% 30.25 in 5.0 mi Calm Calm - N/A Rain Rain
4:15 AM 41.0 °F - 41.0 °F 100% 30.25 in 5.0 mi Calm Calm - N/A Rain Rain
4:35 AM 41.2 °F - 41.2 °F 100% 30.24 in 7.0 mi Calm Calm - N/A Rain Light Rain
4:55 AM 41.5 °F - 41.5 °F 100% 30.24 in 7.0 mi Calm Calm - N/A Rain Rain
5:15 AM 41.5 °F - 41.5 °F 100% 30.25 in 4.0 mi Calm Calm - N/A Rain Rain
5:35 AM 41.9 °F - 41.9 °F 100% 30.24 in 5.0 mi Calm Calm - N/A Rain Rain
5:55 AM 41.9 °F - 41.9 °F 100% 30.24 in 7.0 mi Calm Calm - N/A Rain Light Rain
6:15 AM 41.9 °F 40.0 °F 41.9 °F 100% 30.24 in 5.0 mi North 3.5 mph - N/A Rain Rain
6:35 AM 41.9 °F 38.2 °F 41.9 °F 100% 30.23 in 10.0 mi North 5.8 mph - N/A Rain Light Rain
6:55 AM 41.9 °F 37.5 °F 41.9 °F 100% 30.23 in 7.0 mi North 6.9 mph - N/A Rain Light Rain
7:15 AM 42.3 °F 39.4 °F 42.3 °F 100% 30.24 in 10.0 mi North 4.6 mph - N/A Rain Light Rain
7:35 AM 43.0 °F 40.3 °F 43.0 °F 100% 30.25 in 10.0 mi NNE 4.6 mph - N/A Rain Light Rain
7:55 AM 43.5 °F 40.1 °F 43.5 °F 100% 30.25 in 10.0 mi North 5.8 mph - N/A Rain Light Rain
8:15 AM 43.2 °F 39.0 °F 43.2 °F 100% 30.25 in 10.0 mi North 6.9 mph - N/A Rain Light Rain
8:35 AM 43.0 °F 38.2 °F 43.0 °F 100% 30.24 in 4.0 mi North 8.1 mph - N/A   Overcast
8:55 AM 43.7 °F 38.6 °F 43.7 °F 100% 30.24 in 5.0 mi North 9.2 mph - N/A   Light Drizzle
9:15 AM 43.7 °F 39.1 °F 43.7 °F 100% 30.23 in 5.0 mi North 8.1 mph - N/A Rain Light Rain
9:35 AM 43.7 °F 37.7 °F 43.7 °F 100% 30.23 in 3.0 mi North 11.5 mph - N/A   Light Drizzle
9:55 AM 43.3 °F 39.2 °F 43.3 °F 100% 30.23 in 2.5 mi NNE 6.9 mph 18.4 mph N/A   Overcast
10:15 AM 43.9 °F 41.3 °F 43.9 °F 100% 30.23 in 4.0 mi NNE 4.6 mph - N/A   Overcast
10:35 AM 44.2 °F 41.0 °F 44.2 °F 100% 30.22 in 4.0 mi NNE 5.8 mph - N/A Rain Rain
10:55 AM 45.1 °F 42.8 °F 45.1 °F 100% 30.22 in 5.0 mi NNE 4.6 mph - N/A Rain Light Rain
11:15 AM 45.5 °F 41.8 °F 45.5 °F 100% 30.20 in 7.0 mi NNE 6.9 mph - N/A Rain Light Rain
11:35 AM 46.4 °F 42.4 °F 46.4 °F 100% 30.20 in 7.0 mi North 8.1 mph - N/A Rain Light Rain
11:55 AM 46.0 °F 41.0 °F 46.0 °F 100% 30.21 in 7.0 mi North 10.4 mph - N/A   Drizzle
12:15 PM 46.0 °F 42.5 °F 46.0 °F 100% 30.20 in 5.0 mi NNE 6.9 mph - N/A Rain Light Rain
12:35 PM 46.4 °F 43.5 °F 46.4 °F 100% 30.19 in 4.0 mi North 5.8 mph - N/A Rain Light Rain
12:55 PM 46.4 °F 42.4 °F 46.4 °F 100% 30.17 in 4.0 mi North 8.1 mph - N/A Rain Rain
1:35 PM 46.8 °F - 46.8 °F 100% 30.16 in 10.0 mi NNE 5.8 mph - N/A Rain Light Rain
1:55 PM 46.8 °F - 46.8 °F 100% 30.16 in 10.0 mi North 5.8 mph - 0.01 in Rain Light Rain
2:15 PM 46.8 °F - 46.8 °F 100% 30.15 in 5.0 mi NNE 5.8 mph - N/A Rain Rain
2:35 PM 46.8 °F - 46.8 °F 100% 30.14 in 4.0 mi NNE 6.9 mph - N/A Rain Light Rain
2:55 PM 46.9 °F - 46.9 °F 100% 30.15 in 7.0 mi NNE 9.2 mph - N/A Rain Light Rain
3:15 PM 45.7 °F 41.0 °F 45.7 °F 100% 30.15 in 7.0 mi NNE 9.2 mph - N/A Rain Light Rain
3:55 PM 44.1 °F 39.0 °F 44.1 °F 100% 30.15 in 10.0 mi NNE 9.2 mph - N/A Rain Light Rain
4:15 PM 44.1 °F 39.0 °F 44.1 °F 100% 30.13 in 10.0 mi NNE 9.2 mph - N/A Rain Light Rain
4:35 PM 43.7 °F 39.7 °F 43.7 °F 100% 30.12 in 10.0 mi NNE 6.9 mph - N/A Rain Rain
4:55 PM 43.7 °F 39.7 °F 43.7 °F 100% 30.12 in 10.0 mi NNE 6.9 mph - N/A Rain Light Rain
5:15 PM 43.7 °F 39.7 °F 43.5 °F 99% 30.14 in 10.0 mi North 6.9 mph - N/A Rain Light Rain
5:35 PM 43.7 °F 41.1 °F 43.7 °F 100% 30.15 in 10.0 mi North 4.6 mph - N/A Rain Rain
5:55 PM 43.3 °F 39.9 °F 43.3 °F 100% 30.15 in 5.0 mi NNE 5.8 mph - N/A Rain Heavy Rain
6:15 PM 43.2 °F 39.0 °F 43.2 °F 100% 30.15 in 10.0 mi NNE 6.9 mph - N/A Rain Rain
6:55 PM 43.0 °F 38.2 °F 43.0 °F 100% 30.14 in 10.0 mi North 8.1 mph - N/A Rain Rain
7:15 PM 42.8 °F 38.0 °F 42.8 °F 100% 30.14 in 10.0 mi North 8.1 mph - N/A Rain Light Rain
7:35 PM 42.8 °F 38.0 °F 42.4 °F 99% 30.13 in 10.0 mi NNE 8.1 mph - N/A Rain Rain
7:55 PM 42.8 °F 37.5 °F 42.8 °F 100% 30.14 in 7.0 mi North 9.2 mph 17.3 mph N/A Rain Heavy Rain
8:15 PM 42.4 °F 37.0 °F 42.4 °F 100% 30.14 in 7.0 mi North 9.2 mph 17.3 mph N/A Rain Heavy Rain
8:35 PM 42.3 °F 36.8 °F 42.3 °F 100% 30.14 in 7.0 mi North 9.2 mph - N/A Rain Rain
8:55 PM 42.1 °F 37.1 °F 42.1 °F 100% 30.14 in 5.0 mi North 8.1 mph - N/A Rain Heavy Rain
9:15 PM 42.1 °F 36.1 °F 42.1 °F 100% 30.13 in 5.0 mi North 10.4 mph - N/A Rain Rain
9:35 PM 42.1 °F 36.6 °F 42.1 °F 100% 30.14 in 4.0 mi North 9.2 mph - N/A Rain Light Rain
9:55 PM 42.3 °F 35.9 °F 42.3 °F 100% 30.13 in 3.0 mi North 11.5 mph 17.3 mph N/A Rain Rain
10:15 PM 42.3 °F 36.3 °F 42.3 °F 100% 30.14 in 5.0 mi NNE 10.4 mph 18.4 mph N/A Rain Rain
10:35 PM 42.3 °F 36.3 °F 42.3 °F 100% 30.13 in 5.0 mi North 10.4 mph 18.4 mph N/A Rain Rain
10:55 PM 42.1 °F 36.1 °F 42.1 °F 100% 30.13 in 5.0 mi NNE 10.4 mph 17.3 mph N/A Rain Rain
11:15 PM 42.1 °F 36.6 °F 42.1 °F 100% 30.12 in 7.0 mi North 9.2 mph 18.4 mph N/A   Drizzle
11:35 PM 42.3 °F 36.3 °F 42.3 °F 100% 30.12 in 7.0 mi North 10.4 mph 16.1 mph N/A   Drizzle
11:55 PM 42.8 °F 37.0 °F 42.8 °F 100% 30.11 in 7.0 mi North 10.4 mph - N/A   Drizzle